Year,Month,Day,Hour,Minute,Value (Times are PST for temperature in C)
2017,02,02,00,00,-4.40
2017,02,02,00,01,-4.40
2017,02,02,00,02,-4.40
2017,02,02,00,03,-4.40
2017,02,02,00,04,-4.40
2017,02,02,00,05,-4.40
2017,02,02,00,06,-4.40
2017,02,02,00,07,-4.40
2017,02,02,00,08,-4.40
2017,02,02,00,09,-4.40
2017,02,02,00,10,-4.40
2017,02,02,00,11,-4.40
2017,02,02,00,12,-4.40
2017,02,02,00,13,-4.40
2017,02,02,00,14,-4.40
2017,02,02,00,15,-4.40
2017,02,02,00,16,-4.40
2017,02,02,00,17,-4.30
2017,02,02,00,18,-4.30
2017,02,02,00,19,-4.30
2017,02,02,00,20,-4.30
2017,02,02,00,21,-4.40
2017,02,02,00,22,-4.40
2017,02,02,00,23,-4.40
2017,02,02,00,24,-4.40
2017,02,02,00,25,-4.50
2017,02,02,00,26,-4.50
2017,02,02,00,27,-4.50
2017,02,02,00,28,-4.60
2017,02,02,00,29,-4.60
2017,02,02,00,30,-4.60
2017,02,02,00,31,-4.60
2017,02,02,00,32,-4.70
2017,02,02,00,33,-4.70
2017,02,02,00,34,-4.70
2017,02,02,00,35,-4.60
2017,02,02,00,36,-4.60
2017,02,02,00,37,-4.60
2017,02,02,00,38,-4.60
2017,02,02,00,39,-4.60
2017,02,02,00,40,-4.60
2017,02,02,00,41,-4.50
2017,02,02,00,42,-4.50
2017,02,02,00,43,-4.40
2017,02,02,00,44,-4.40
2017,02,02,00,45,-4.40
2017,02,02,00,46,-4.40
2017,02,02,00,47,-4.40
2017,02,02,00,48,-4.40
2017,02,02,00,49,-4.40
2017,02,02,00,50,-4.40
2017,02,02,00,51,-4.40
2017,02,02,00,52,-4.40
2017,02,02,00,53,-4.40
2017,02,02,00,54,-4.40
2017,02,02,00,55,-4.40
2017,02,02,00,56,-4.40
2017,02,02,00,57,-4.50
2017,02,02,00,58,-4.50
2017,02,02,00,59,-4.60
2017,02,02,01,00,-4.60
2017,02,02,01,01,-4.60
2017,02,02,01,02,-4.70
2017,02,02,01,03,-4.70
2017,02,02,01,04,-4.80
2017,02,02,01,05,-4.80
2017,02,02,01,06,-4.80
2017,02,02,01,07,-4.80
2017,02,02,01,08,-4.80
2017,02,02,01,09,-4.80
2017,02,02,01,10,-4.80
2017,02,02,01,11,-4.80
2017,02,02,01,12,-4.80
2017,02,02,01,13,-4.80
2017,02,02,01,14,-4.80
2017,02,02,01,15,-4.80
2017,02,02,01,16,-4.80
2017,02,02,01,17,-4.80
2017,02,02,01,18,-4.90
2017,02,02,01,19,-4.90
2017,02,02,01,20,-4.90
2017,02,02,01,21,-4.90
2017,02,02,01,22,-4.90
2017,02,02,01,23,-4.90
2017,02,02,01,24,-5.00
2017,02,02,01,25,-5.00
2017,02,02,01,26,-5.00
2017,02,02,01,27,-5.00
2017,02,02,01,28,-5.00
2017,02,02,01,29,-5.00
2017,02,02,01,30,-5.00
2017,02,02,01,31,-4.90
2017,02,02,01,32,-4.90
2017,02,02,01,33,-4.90
2017,02,02,01,34,-5.00
2017,02,02,01,35,-5.00
2017,02,02,01,36,-5.00
2017,02,02,01,37,-5.00
2017,02,02,01,38,-5.10
2017,02,02,01,39,-5.10
2017,02,02,01,40,-5.10
2017,02,02,01,41,-5.10
2017,02,02,01,42,-5.10
2017,02,02,01,43,-5.10
2017,02,02,01,44,-5.10
2017,02,02,01,45,-5.20
2017,02,02,01,46,-5.20
2017,02,02,01,47,-5.20
2017,02,02,01,48,-5.20
2017,02,02,01,49,-5.20
2017,02,02,01,50,-5.10
2017,02,02,01,51,-5.10
2017,02,02,01,52,-5.10
2017,02,02,01,53,-5.00
2017,02,02,01,54,-5.00
2017,02,02,01,55,-4.90
2017,02,02,01,56,-4.90
2017,02,02,01,57,-4.90
2017,02,02,01,58,-4.90
2017,02,02,01,59,-4.90
2017,02,02,02,00,-4.90
2017,02,02,02,01,-5.00
2017,02,02,02,02,-5.00
2017,02,02,02,03,-5.00
2017,02,02,02,04,-5.10
2017,02,02,02,05,-5.10
2017,02,02,02,06,-5.10
2017,02,02,02,07,-5.10
2017,02,02,02,08,-5.10
2017,02,02,02,09,-5.10
2017,02,02,02,10,-5.10
2017,02,02,02,11,-5.10
2017,02,02,02,12,-5.10
2017,02,02,02,13,-5.10
2017,02,02,02,14,-5.20
2017,02,02,02,15,-5.20
2017,02,02,02,16,-5.20
2017,02,02,02,17,-5.20
2017,02,02,02,18,-5.20
2017,02,02,02,19,-5.10
2017,02,02,02,20,-5.10
2017,02,02,02,21,-5.10
2017,02,02,02,22,-5.20
2017,02,02,02,23,-5.20
2017,02,02,02,24,-5.20
2017,02,02,02,25,-5.20
2017,02,02,02,26,-5.20
2017,02,02,02,27,-5.30
2017,02,02,02,28,-5.30
2017,02,02,02,29,-5.30
2017,02,02,02,30,-5.30
2017,02,02,02,31,-5.30
2017,02,02,02,32,-5.30
2017,02,02,02,33,-5.30
2017,02,02,02,34,-5.30
2017,02,02,02,35,-5.30
2017,02,02,02,36,-5.30
2017,02,02,02,37,-5.30
2017,02,02,02,38,-5.30
2017,02,02,02,39,-5.20
2017,02,02,02,40,-5.20
2017,02,02,02,41,-5.30
2017,02,02,02,42,-5.30
2017,02,02,02,43,-5.30
2017,02,02,02,44,-5.30
2017,02,02,02,45,-5.30
2017,02,02,02,46,-5.30
2017,02,02,02,47,-5.30
2017,02,02,02,48,-5.30
2017,02,02,02,49,-5.30
2017,02,02,02,50,-5.30
2017,02,02,02,51,-5.30
2017,02,02,02,52,-5.30
2017,02,02,02,53,-5.30
2017,02,02,02,54,-5.30
2017,02,02,02,55,-5.30
2017,02,02,02,56,-5.30
2017,02,02,02,57,-5.30
2017,02,02,02,58,-5.30
2017,02,02,02,59,-5.30
2017,02,02,03,00,-5.30
2017,02,02,03,01,-5.30
2017,02,02,03,02,-5.30
2017,02,02,03,06,-5.40
2017,02,02,03,07,-5.40
2017,02,02,03,08,-5.40
2017,02,02,03,09,-5.40
2017,02,02,03,10,-5.40
2017,02,02,03,11,-5.40
2017,02,02,03,12,-5.40
2017,02,02,03,13,-5.40
2017,02,02,03,14,-5.40
2017,02,02,03,15,-5.40
2017,02,02,03,16,-5.40
2017,02,02,03,17,-5.40
2017,02,02,03,18,-5.30
2017,02,02,03,19,-5.30
2017,02,02,03,20,-5.30
2017,02,02,03,21,-5.30
2017,02,02,03,22,-5.30
2017,02,02,03,23,-5.30
2017,02,02,03,24,-5.30
2017,02,02,03,25,-5.30
2017,02,02,03,26,-5.30
2017,02,02,03,27,-5.30
2017,02,02,03,28,-5.40
2017,02,02,03,29,-5.40
2017,02,02,03,30,-5.40
2017,02,02,03,31,-5.50
2017,02,02,03,32,-5.50
2017,02,02,03,33,-5.50
2017,02,02,03,34,-5.40
2017,02,02,03,35,-5.40
2017,02,02,03,36,-5.40
2017,02,02,03,37,-5.40
2017,02,02,03,38,-5.40
2017,02,02,03,39,-5.40
2017,02,02,03,40,-5.40
2017,02,02,03,41,-5.40
2017,02,02,03,42,-5.30
2017,02,02,03,43,-5.30
2017,02,02,03,44,-5.30
2017,02,02,03,45,-5.30
2017,02,02,03,46,-5.30
2017,02,02,03,47,-5.30
2017,02,02,03,48,-5.30
2017,02,02,03,49,-5.30
2017,02,02,03,50,-5.30
2017,02,02,03,51,-5.20
2017,02,02,03,52,-5.20
2017,02,02,03,53,-5.20
2017,02,02,03,54,-5.20
2017,02,02,03,55,-5.10
2017,02,02,03,56,-5.10
2017,02,02,03,57,-5.10
2017,02,02,03,58,-5.20
2017,02,02,03,59,-5.20
2017,02,02,04,00,-5.20
2017,02,02,04,01,-5.10
2017,02,02,04,02,-5.20
2017,02,02,04,03,-5.20
2017,02,02,04,04,-5.20
2017,02,02,04,05,-5.20
2017,02,02,04,06,-5.20
2017,02,02,04,07,-5.30
2017,02,02,04,08,-5.30
2017,02,02,04,09,-5.30
2017,02,02,04,10,-5.30
2017,02,02,04,11,-5.30
2017,02,02,04,12,-5.30
2017,02,02,04,13,-5.30
2017,02,02,04,14,-5.30
2017,02,02,04,15,-5.30
2017,02,02,04,16,-5.30
2017,02,02,04,17,-5.30
2017,02,02,04,18,-5.30
2017,02,02,04,19,-5.30
2017,02,02,04,20,-5.30
2017,02,02,04,21,-5.30
2017,02,02,04,22,-5.30
2017,02,02,04,23,-5.30
2017,02,02,04,24,-5.30
2017,02,02,04,25,-5.40
2017,02,02,04,26,-5.40
2017,02,02,04,27,-5.40
2017,02,02,04,28,-5.40
2017,02,02,04,29,-5.40
2017,02,02,04,30,-5.40
2017,02,02,04,31,-5.40
2017,02,02,04,32,-5.50
2017,02,02,04,33,-5.50
2017,02,02,04,34,-5.50
2017,02,02,04,35,-5.60
2017,02,02,04,36,-5.60
2017,02,02,04,37,-5.50
2017,02,02,04,38,-5.50
2017,02,02,04,39,-5.50
2017,02,02,04,40,-5.50
2017,02,02,04,41,-5.40
2017,02,02,04,42,-5.40
2017,02,02,04,43,-5.40
2017,02,02,04,44,-5.40
2017,02,02,04,45,-5.30
2017,02,02,04,46,-5.30
2017,02,02,04,47,-5.30
2017,02,02,04,48,-5.30
2017,02,02,04,49,-5.30
2017,02,02,04,50,-5.30
2017,02,02,04,51,-5.30
2017,02,02,04,52,-5.30
2017,02,02,04,53,-5.30
2017,02,02,04,54,-5.30
2017,02,02,04,55,-5.30
2017,02,02,04,56,-5.30
2017,02,02,04,57,-5.30
2017,02,02,04,58,-5.30
2017,02,02,04,59,-5.30
2017,02,02,05,00,-5.30
2017,02,02,05,01,-5.40
2017,02,02,05,02,-5.40
2017,02,02,05,03,-5.40
2017,02,02,05,04,-5.40
2017,02,02,05,05,-5.30
2017,02,02,05,06,-5.30
2017,02,02,05,07,-5.30
2017,02,02,05,08,-5.30
2017,02,02,05,09,-5.30
2017,02,02,05,10,-5.20
2017,02,02,05,11,-5.20
2017,02,02,05,12,-5.20
2017,02,02,05,13,-5.20
2017,02,02,05,14,-5.10
2017,02,02,05,15,-5.10
2017,02,02,05,16,-5.10
2017,02,02,05,17,-5.10
2017,02,02,05,18,-5.10
2017,02,02,05,19,-5.10
2017,02,02,05,20,-5.10
2017,02,02,05,21,-5.10
2017,02,02,05,22,-5.10
2017,02,02,05,23,-5.10
2017,02,02,05,24,-5.10
2017,02,02,05,25,-5.10
2017,02,02,05,26,-5.10
2017,02,02,05,27,-5.10
2017,02,02,05,28,-5.10
2017,02,02,05,29,-5.10
2017,02,02,05,30,-5.10
2017,02,02,05,31,-5.00
2017,02,02,05,32,-5.00
2017,02,02,05,33,-5.00
2017,02,02,05,34,-4.90
2017,02,02,05,35,-4.90
2017,02,02,05,36,-4.90
2017,02,02,05,37,-4.90
2017,02,02,05,38,-4.90
2017,02,02,05,39,-4.90
2017,02,02,05,40,-4.90
2017,02,02,05,41,-4.90
2017,02,02,05,42,-4.90
2017,02,02,05,43,-4.90
2017,02,02,05,44,-4.80
2017,02,02,05,45,-4.80
2017,02,02,05,46,-4.80
2017,02,02,05,47,-4.80
2017,02,02,05,48,-4.80
2017,02,02,05,49,-4.80
2017,02,02,05,50,-4.80
2017,02,02,05,51,-4.80
2017,02,02,05,52,-4.80
2017,02,02,05,53,-4.80
2017,02,02,05,54,-4.80
2017,02,02,05,55,-4.80
2017,02,02,05,56,-4.70
2017,02,02,05,57,-4.70
2017,02,02,05,58,-4.60
2017,02,02,05,59,-4.60
2017,02,02,06,00,-4.50
2017,02,02,06,01,-4.50
2017,02,02,06,02,-4.40
2017,02,02,06,03,-4.40
2017,02,02,06,04,-4.40
2017,02,02,06,05,-4.40
2017,02,02,06,06,-4.40
2017,02,02,06,07,-4.30
2017,02,02,06,08,-4.30
2017,02,02,06,09,-4.30
2017,02,02,06,10,-4.30
2017,02,02,06,11,-4.30
2017,02,02,06,12,-4.40
2017,02,02,06,13,-4.40
2017,02,02,06,14,-4.40
2017,02,02,06,15,-4.40
2017,02,02,06,16,-4.40
2017,02,02,06,17,-4.40
2017,02,02,06,18,-4.50
2017,02,02,06,19,-4.50
2017,02,02,06,20,-4.50
2017,02,02,06,21,-4.40
2017,02,02,06,22,-4.40
2017,02,02,06,23,-4.40
2017,02,02,06,24,-4.30
2017,02,02,06,25,-4.30
2017,02,02,06,26,-4.20
2017,02,02,06,27,-4.10
2017,02,02,06,28,-3.90
2017,02,02,06,29,-3.80
2017,02,02,06,30,-3.70
2017,02,02,06,31,-3.70
2017,02,02,06,32,-3.60
2017,02,02,06,33,-3.50
2017,02,02,06,34,-3.30
2017,02,02,06,35,-3.10
2017,02,02,06,36,-3.00
2017,02,02,06,37,-2.90
2017,02,02,06,38,-2.80
2017,02,02,06,39,-2.80
2017,02,02,06,40,-2.60
2017,02,02,06,41,-2.40
2017,02,02,06,42,-2.40
2017,02,02,06,43,-2.30
2017,02,02,06,44,-2.30
2017,02,02,06,45,-2.30
2017,02,02,06,46,-2.20
2017,02,02,06,47,-2.10
2017,02,02,06,48,-1.90
2017,02,02,06,49,-1.80
2017,02,02,06,50,-1.80
2017,02,02,06,51,-1.90
2017,02,02,06,52,-1.90
2017,02,02,06,53,-1.90
2017,02,02,06,54,-2.00
2017,02,02,06,55,-2.00
2017,02,02,06,56,-2.00
2017,02,02,06,57,-2.00
2017,02,02,06,58,-1.90
2017,02,02,06,59,-1.80
2017,02,02,07,00,-1.90
2017,02,02,07,01,-1.90
2017,02,02,07,02,-1.90
2017,02,02,07,03,-1.80
2017,02,02,07,04,-1.80
2017,02,02,07,05,-1.70
2017,02,02,07,06,-1.70
2017,02,02,07,07,-1.60
2017,02,02,07,08,-1.60
2017,02,02,07,09,-1.60
2017,02,02,07,10,-1.70
2017,02,02,07,11,-1.70
2017,02,02,07,12,-1.70
2017,02,02,07,13,-1.80
2017,02,02,07,14,-1.90
2017,02,02,07,15,-2.10
2017,02,02,07,16,-2.30
2017,02,02,07,17,-2.40
2017,02,02,07,18,-2.60
2017,02,02,07,19,-2.70
2017,02,02,07,20,-2.80
2017,02,02,07,21,-2.90
2017,02,02,07,22,-2.90
2017,02,02,07,23,-2.90
2017,02,02,07,24,-2.90
2017,02,02,07,25,-2.90
2017,02,02,07,26,-2.90
2017,02,02,07,27,-2.90
2017,02,02,07,28,-2.90
2017,02,02,07,29,-2.80
2017,02,02,07,30,-2.80
2017,02,02,07,31,-2.90
2017,02,02,07,32,-2.80
2017,02,02,07,33,-2.80
2017,02,02,07,34,-2.70
2017,02,02,07,35,-2.70
2017,02,02,07,36,-2.60
2017,02,02,07,37,-2.50
2017,02,02,07,38,-2.50
2017,02,02,07,39,-2.40
2017,02,02,07,40,-2.30
2017,02,02,07,41,-2.30
2017,02,02,07,42,-2.20
2017,02,02,07,43,-2.10
2017,02,02,07,44,-2.10
2017,02,02,07,45,-2.00
2017,02,02,07,46,-1.90
2017,02,02,07,47,-1.80
2017,02,02,07,48,-1.70
2017,02,02,07,49,-1.60
2017,02,02,07,50,-1.50
2017,02,02,07,51,-1.40
2017,02,02,07,52,-1.20
2017,02,02,07,53,-1.00
2017,02,02,07,54,-0.80
2017,02,02,07,55,-0.70
2017,02,02,07,56,-0.60
2017,02,02,07,57,-0.50
2017,02,02,07,58,-0.40
2017,02,02,07,59,-0.30
2017,02,02,08,00,-0.20
2017,02,02,08,01,-0.20
2017,02,02,08,02,-0.10
2017,02,02,08,03,-0.10
2017,02,02,08,04,0.00
2017,02,02,08,05,0.00
2017,02,02,08,06,0.10
2017,02,02,08,07,0.20
2017,02,02,08,08,0.20
2017,02,02,08,09,0.30
2017,02,02,08,10,0.40
2017,02,02,08,11,0.60
2017,02,02,08,12,0.70
2017,02,02,08,13,0.80
2017,02,02,08,14,0.90
2017,02,02,08,15,1.00
2017,02,02,08,16,1.20
2017,02,02,08,17,1.20
2017,02,02,08,18,1.30
2017,02,02,08,19,1.30
2017,02,02,08,20,1.30
2017,02,02,08,21,1.30
2017,02,02,08,22,1.30
2017,02,02,08,23,1.30
2017,02,02,08,24,1.20
2017,02,02,08,25,1.20
2017,02,02,08,26,1.10
2017,02,02,08,27,1.10
2017,02,02,08,28,1.10
2017,02,02,08,29,1.10
2017,02,02,08,30,1.00
2017,02,02,08,31,0.90
2017,02,02,08,32,0.90
2017,02,02,08,33,0.80
2017,02,02,08,34,0.80
2017,02,02,08,35,0.70
2017,02,02,08,36,0.60
2017,02,02,08,37,0.70
2017,02,02,08,38,0.70
2017,02,02,08,39,0.70
2017,02,02,08,40,0.60
2017,02,02,08,41,0.50
2017,02,02,08,42,0.40
2017,02,02,08,43,0.30
2017,02,02,08,44,0.30
2017,02,02,08,45,0.30
2017,02,02,08,46,0.40
2017,02,02,08,47,0.70
2017,02,02,08,48,0.90
2017,02,02,08,49,1.10
2017,02,02,08,50,1.20
2017,02,02,08,51,1.30
2017,02,02,08,52,1.40
2017,02,02,08,53,1.40
2017,02,02,08,54,1.40
2017,02,02,08,55,1.30
2017,02,02,08,56,1.30
2017,02,02,08,57,1.20
2017,02,02,08,58,1.20
2017,02,02,08,59,1.20
2017,02,02,09,00,1.20
2017,02,02,09,01,1.20
2017,02,02,09,02,1.40
2017,02,02,09,03,1.50
2017,02,02,09,04,1.60
2017,02,02,09,05,1.80
2017,02,02,09,06,1.90
2017,02,02,09,07,1.90
2017,02,02,09,08,2.00
2017,02,02,09,09,2.10
2017,02,02,09,10,2.20
2017,02,02,09,11,2.20
2017,02,02,09,12,2.20
2017,02,02,09,13,2.20
2017,02,02,09,14,2.30
2017,02,02,09,15,2.30
2017,02,02,09,16,2.30
2017,02,02,09,17,2.40
2017,02,02,09,18,2.50
2017,02,02,09,19,2.60
2017,02,02,09,20,2.70
2017,02,02,09,21,2.80
2017,02,02,09,22,2.80
2017,02,02,09,23,2.80
2017,02,02,09,24,2.80
2017,02,02,09,25,2.80
2017,02,02,09,26,2.80
2017,02,02,09,27,2.90
2017,02,02,09,28,3.00
2017,02,02,09,29,3.10
2017,02,02,09,30,3.20
2017,02,02,09,31,3.20
2017,02,02,09,32,3.30
2017,02,02,09,33,3.30
2017,02,02,09,34,3.30
2017,02,02,09,35,3.40
2017,02,02,09,36,3.40
2017,02,02,09,37,3.40
2017,02,02,09,38,3.40
2017,02,02,09,39,3.40
2017,02,02,09,40,3.40
2017,02,02,09,41,3.50
2017,02,02,09,42,3.50
2017,02,02,09,43,3.60
2017,02,02,09,44,3.60
2017,02,02,09,45,3.70
2017,02,02,09,46,3.70
2017,02,02,09,47,3.80
2017,02,02,09,48,3.80
2017,02,02,09,49,3.80
2017,02,02,09,50,3.80
2017,02,02,09,51,3.80
2017,02,02,09,52,3.80
2017,02,02,09,53,3.80
2017,02,02,09,54,3.90
2017,02,02,09,55,3.90
2017,02,02,09,56,3.90
2017,02,02,09,57,3.90
2017,02,02,09,58,4.00
2017,02,02,09,59,4.00
2017,02,02,10,00,4.10
2017,02,02,10,01,4.10
2017,02,02,10,02,4.10
2017,02,02,10,03,4.10
2017,02,02,10,04,4.10
2017,02,02,10,05,4.10
2017,02,02,10,06,4.10
2017,02,02,10,07,4.20
2017,02,02,10,08,4.20
2017,02,02,10,09,4.20
2017,02,02,10,10,4.20
2017,02,02,10,11,4.30
2017,02,02,10,12,4.30
2017,02,02,10,13,4.20
2017,02,02,10,14,4.20
2017,02,02,10,15,4.20
2017,02,02,10,16,4.30
2017,02,02,10,17,4.30
2017,02,02,10,18,4.30
2017,02,02,10,19,4.30
2017,02,02,10,20,4.40
2017,02,02,10,21,4.40
2017,02,02,10,22,4.40
2017,02,02,10,23,4.40
2017,02,02,10,24,4.50
2017,02,02,10,25,4.50
2017,02,02,10,26,4.50
2017,02,02,10,27,4.60
2017,02,02,10,28,4.60
2017,02,02,10,29,4.70
2017,02,02,10,30,4.70
2017,02,02,10,31,4.70
2017,02,02,10,32,4.70
2017,02,02,10,33,4.80
2017,02,02,10,34,4.80
2017,02,02,10,35,4.70
2017,02,02,10,36,4.70
2017,02,02,10,37,4.70
2017,02,02,10,38,4.70
2017,02,02,10,39,4.70
2017,02,02,10,40,4.80
2017,02,02,10,41,4.90
2017,02,02,10,42,4.90
2017,02,02,10,43,4.90
2017,02,02,10,44,4.90
2017,02,02,10,45,4.90
2017,02,02,10,46,4.90
2017,02,02,10,47,4.90
2017,02,02,10,48,4.90
2017,02,02,10,49,4.90
2017,02,02,10,50,4.90
2017,02,02,10,51,4.90
2017,02,02,10,52,4.80
2017,02,02,10,53,4.80
2017,02,02,10,54,4.80
2017,02,02,10,55,4.80
2017,02,02,10,56,4.80
2017,02,02,10,57,4.80
2017,02,02,10,58,4.80
2017,02,02,10,59,4.80
2017,02,02,11,00,4.80
2017,02,02,11,01,4.80
2017,02,02,11,02,4.80
2017,02,02,11,03,4.80
2017,02,02,11,04,4.90
2017,02,02,11,05,4.90
2017,02,02,11,06,4.90
2017,02,02,11,07,5.00
2017,02,02,11,08,5.00
2017,02,02,11,09,5.10
2017,02,02,11,10,5.20
2017,02,02,11,11,5.20
2017,02,02,11,12,5.30
2017,02,02,11,13,5.30
2017,02,02,11,14,5.30
2017,02,02,11,15,5.30
2017,02,02,11,16,5.30
2017,02,02,11,17,5.30
2017,02,02,11,18,5.30
2017,02,02,11,19,5.40
2017,02,02,11,20,5.40
2017,02,02,11,21,5.40
2017,02,02,11,22,5.40
2017,02,02,11,23,5.30
2017,02,02,11,24,5.30
2017,02,02,11,25,5.30
2017,02,02,11,26,5.20
2017,02,02,11,27,5.20
2017,02,02,11,28,5.20
2017,02,02,11,29,5.20
2017,02,02,11,30,5.20
2017,02,02,11,31,5.20
2017,02,02,11,32,5.20
2017,02,02,11,33,5.20
2017,02,02,11,34,5.20
2017,02,02,11,35,5.20
2017,02,02,11,36,5.20
2017,02,02,11,37,5.20
2017,02,02,11,38,5.20
2017,02,02,11,39,5.20
2017,02,02,11,40,5.20
2017,02,02,11,41,5.10
2017,02,02,11,42,5.10
2017,02,02,11,43,5.10
2017,02,02,11,44,5.10
2017,02,02,11,45,5.10
2017,02,02,11,46,5.20
2017,02,02,11,47,5.30
2017,02,02,11,48,5.40
2017,02,02,11,49,5.50
2017,02,02,11,50,5.50
2017,02,02,11,51,5.60
2017,02,02,11,52,5.60
2017,02,02,11,53,5.50
2017,02,02,11,54,5.50
2017,02,02,11,55,5.50
2017,02,02,11,56,5.50
2017,02,02,11,57,5.60
2017,02,02,11,58,5.60
2017,02,02,11,59,5.70
2017,02,02,12,00,5.70
2017,02,02,12,01,5.70
2017,02,02,12,02,5.80
2017,02,02,12,03,5.80
2017,02,02,12,04,5.80
2017,02,02,12,05,5.80
2017,02,02,12,06,5.80
2017,02,02,12,07,5.80
2017,02,02,12,08,5.80
2017,02,02,12,09,5.80
2017,02,02,12,10,5.80
2017,02,02,12,11,5.80
2017,02,02,12,12,5.80
2017,02,02,12,13,5.90
2017,02,02,12,14,5.90
2017,02,02,12,15,5.90
2017,02,02,12,16,5.90
2017,02,02,12,17,5.90
2017,02,02,12,18,5.90
2017,02,02,12,19,5.80
2017,02,02,12,20,5.80
2017,02,02,12,21,5.80
2017,02,02,12,22,5.80
2017,02,02,12,23,5.80
2017,02,02,12,24,5.80
2017,02,02,12,25,5.80
2017,02,02,12,26,5.80
2017,02,02,12,27,5.80
2017,02,02,12,28,5.80
2017,02,02,12,29,5.80
2017,02,02,12,30,5.80
2017,02,02,12,31,5.80
2017,02,02,12,32,5.80
2017,02,02,12,33,5.70
2017,02,02,12,34,5.70
2017,02,02,12,35,5.70
2017,02,02,12,36,5.70
2017,02,02,12,37,5.80
2017,02,02,12,38,5.90
2017,02,02,12,39,6.00
2017,02,02,12,40,6.00
2017,02,02,12,41,6.10
2017,02,02,12,42,6.10
2017,02,02,12,43,6.10
2017,02,02,12,44,6.00
2017,02,02,12,45,5.90
2017,02,02,12,46,5.80
2017,02,02,12,47,5.80
2017,02,02,12,48,5.80
2017,02,02,12,49,5.80
2017,02,02,12,50,5.80
2017,02,02,12,51,5.70
2017,02,02,12,52,5.70
2017,02,02,12,53,5.70
2017,02,02,12,54,5.70
2017,02,02,12,55,5.70
2017,02,02,12,56,5.70
2017,02,02,12,57,5.70
2017,02,02,12,58,5.70
2017,02,02,12,59,5.70
2017,02,02,13,00,5.70
2017,02,02,13,01,5.60
2017,02,02,13,02,5.60
2017,02,02,13,03,5.60
2017,02,02,13,04,5.60
2017,02,02,13,05,5.60
2017,02,02,13,06,5.60
2017,02,02,13,07,5.60
2017,02,02,13,08,5.60
2017,02,02,13,09,5.60
2017,02,02,13,10,5.60
2017,02,02,13,11,5.60
2017,02,02,13,12,5.60
2017,02,02,13,13,5.60
2017,02,02,13,14,5.60
2017,02,02,13,15,5.60
2017,02,02,13,16,5.60
2017,02,02,13,17,5.60
2017,02,02,13,18,5.60
2017,02,02,13,19,5.60
2017,02,02,13,20,5.50
2017,02,02,13,21,5.50
2017,02,02,13,22,5.60
2017,02,02,13,23,5.50
2017,02,02,13,24,5.50
2017,02,02,13,25,5.50
2017,02,02,13,26,5.50
2017,02,02,13,27,5.50
2017,02,02,13,28,5.60
2017,02,02,13,29,5.70
2017,02,02,13,30,5.80
2017,02,02,13,31,5.90
2017,02,02,13,32,5.90
2017,02,02,13,33,6.00
2017,02,02,13,34,6.00
2017,02,02,13,35,6.10
2017,02,02,13,36,6.10
2017,02,02,13,37,6.10
2017,02,02,13,38,6.10
2017,02,02,13,39,6.10
2017,02,02,13,40,6.00
2017,02,02,13,41,6.00
2017,02,02,13,42,6.00
2017,02,02,13,43,6.00
2017,02,02,13,44,6.10
2017,02,02,13,45,6.00
2017,02,02,13,46,6.00
2017,02,02,13,47,6.10
2017,02,02,13,48,6.10
2017,02,02,13,49,6.10
2017,02,02,13,50,6.00
2017,02,02,13,51,6.00
2017,02,02,13,52,5.90
2017,02,02,13,53,5.90
2017,02,02,13,54,5.90
2017,02,02,13,55,5.90
2017,02,02,13,56,5.80
2017,02,02,13,57,5.80
2017,02,02,13,58,5.80
2017,02,02,13,59,5.80
2017,02,02,14,00,5.80
2017,02,02,14,01,5.90
2017,02,02,14,02,5.90
2017,02,02,14,03,5.90
2017,02,02,14,04,5.90
2017,02,02,14,05,5.90
2017,02,02,14,06,5.90
2017,02,02,14,07,5.90
2017,02,02,14,08,5.80
2017,02,02,14,09,5.80
2017,02,02,14,10,5.80
2017,02,02,14,11,5.80
2017,02,02,14,12,5.80
2017,02,02,14,13,5.80
2017,02,02,14,14,5.80
2017,02,02,14,15,5.80
2017,02,02,14,16,5.80
2017,02,02,14,17,5.80
2017,02,02,14,18,5.70
2017,02,02,14,19,5.70
2017,02,02,14,20,5.70
2017,02,02,14,21,5.70
2017,02,02,14,22,5.70
2017,02,02,14,23,5.70
2017,02,02,14,24,5.70
2017,02,02,14,25,5.70
2017,02,02,14,26,5.70
2017,02,02,14,27,5.70
2017,02,02,14,28,5.80
2017,02,02,14,29,5.80
2017,02,02,14,30,5.80
2017,02,02,14,31,5.80
2017,02,02,14,32,5.90
2017,02,02,14,33,5.90
2017,02,02,14,34,5.90
2017,02,02,14,35,5.90
2017,02,02,14,36,5.90
2017,02,02,14,37,5.90
2017,02,02,14,38,5.80
2017,02,02,14,39,5.90
2017,02,02,14,40,5.90
2017,02,02,14,41,5.90
2017,02,02,14,42,5.80
2017,02,02,14,43,5.80
2017,02,02,14,44,5.80
2017,02,02,14,45,5.80
2017,02,02,14,46,5.80
2017,02,02,14,47,5.80
2017,02,02,14,48,5.80
2017,02,02,14,49,5.80
2017,02,02,14,50,5.90
2017,02,02,14,51,6.00
2017,02,02,14,52,6.10
2017,02,02,14,53,6.20
2017,02,02,14,54,6.20
2017,02,02,14,55,6.30
2017,02,02,14,56,6.20
2017,02,02,14,57,6.20
2017,02,02,14,58,6.10
2017,02,02,14,59,6.10
2017,02,02,15,00,6.10
2017,02,02,15,01,6.10
2017,02,02,15,02,6.10
2017,02,02,15,03,6.10
2017,02,02,15,04,6.10
2017,02,02,15,05,6.00
2017,02,02,15,06,5.90
2017,02,02,15,07,5.90
2017,02,02,15,08,5.80
2017,02,02,15,09,5.80
2017,02,02,15,10,5.80
2017,02,02,15,11,5.80
2017,02,02,15,12,5.70
2017,02,02,15,13,5.70
2017,02,02,15,14,5.80
2017,02,02,15,15,5.80
2017,02,02,15,16,5.80
2017,02,02,15,17,5.80
2017,02,02,15,18,5.90
2017,02,02,15,19,6.00
2017,02,02,15,20,6.10
2017,02,02,15,21,6.10
2017,02,02,15,22,6.10
2017,02,02,15,23,6.10
2017,02,02,15,24,6.10
2017,02,02,15,25,6.20
2017,02,02,15,26,6.20
2017,02,02,15,27,6.10
2017,02,02,15,28,6.10
2017,02,02,15,29,6.10
2017,02,02,15,30,6.10
2017,02,02,15,31,6.10
2017,02,02,15,32,6.00
2017,02,02,15,33,6.00
2017,02,02,15,34,6.00
2017,02,02,15,35,5.90
2017,02,02,15,36,5.90
2017,02,02,15,37,5.90
2017,02,02,15,38,5.80
2017,02,02,15,39,5.80
2017,02,02,15,40,5.80
2017,02,02,15,41,5.70
2017,02,02,15,42,5.70
2017,02,02,15,43,5.70
2017,02,02,15,44,5.70
2017,02,02,15,45,5.70
2017,02,02,15,46,5.70
2017,02,02,15,47,5.70
2017,02,02,15,48,5.70
2017,02,02,15,49,5.70
2017,02,02,15,50,5.70
2017,02,02,15,51,5.70
2017,02,02,15,52,5.60
2017,02,02,15,53,5.50
2017,02,02,15,54,5.50
2017,02,02,15,55,5.40
2017,02,02,15,56,5.30
2017,02,02,15,57,5.10
2017,02,02,15,58,4.90
2017,02,02,15,59,4.80
2017,02,02,16,00,4.70
2017,02,02,16,01,4.50
2017,02,02,16,02,4.40
2017,02,02,16,03,4.30
2017,02,02,16,04,4.20
2017,02,02,16,05,4.00
2017,02,02,16,06,3.90
2017,02,02,16,07,3.80
2017,02,02,16,08,3.70
2017,02,02,16,09,3.70
2017,02,02,16,10,3.60
2017,02,02,16,11,3.50
2017,02,02,16,12,3.40
2017,02,02,16,13,3.30
2017,02,02,16,14,3.20
2017,02,02,16,15,3.20
2017,02,02,16,16,3.10
2017,02,02,16,17,3.00
2017,02,02,16,18,2.90
2017,02,02,16,19,2.80
2017,02,02,16,20,2.70
2017,02,02,16,21,2.60
2017,02,02,16,22,2.60
2017,02,02,16,23,2.50
2017,02,02,16,24,2.50
2017,02,02,16,25,2.40
2017,02,02,16,26,2.40
2017,02,02,16,27,2.30
2017,02,02,16,28,2.30
2017,02,02,16,29,2.30
2017,02,02,16,30,2.20
2017,02,02,16,31,2.20
2017,02,02,16,32,2.20
2017,02,02,16,33,2.10
2017,02,02,16,34,2.10
2017,02,02,16,35,2.00
2017,02,02,16,36,1.90
2017,02,02,16,37,1.90
2017,02,02,16,38,1.80
2017,02,02,16,39,1.80
2017,02,02,16,40,1.70
2017,02,02,16,41,1.70
2017,02,02,16,42,1.70
2017,02,02,16,43,1.70
2017,02,02,16,44,1.60
2017,02,02,16,45,1.60
2017,02,02,16,46,1.60
2017,02,02,16,47,1.60
2017,02,02,16,48,1.60
2017,02,02,16,49,1.50
2017,02,02,16,50,1.50
2017,02,02,16,51,1.40
2017,02,02,16,52,1.40
2017,02,02,16,53,1.30
2017,02,02,16,54,1.30
2017,02,02,16,55,1.20
2017,02,02,16,56,1.20
2017,02,02,16,57,1.10
2017,02,02,16,58,1.10
2017,02,02,16,59,1.00
2017,02,02,17,00,1.00
2017,02,02,17,01,0.90
2017,02,02,17,02,0.90
2017,02,02,17,03,0.80
2017,02,02,17,04,0.70
2017,02,02,17,05,0.60
2017,02,02,17,06,0.60
2017,02,02,17,07,0.50
2017,02,02,17,08,0.40
2017,02,02,17,09,0.40
2017,02,02,17,10,0.30
2017,02,02,17,11,0.30
2017,02,02,17,12,0.20
2017,02,02,17,13,0.20
2017,02,02,17,14,0.20
2017,02,02,17,15,0.20
2017,02,02,17,16,0.20
2017,02,02,17,17,0.10
2017,02,02,17,18,0.10
2017,02,02,17,19,0.00
2017,02,02,17,20,0.00
2017,02,02,17,21,-0.10
2017,02,02,17,22,-0.20
2017,02,02,17,23,-0.20
2017,02,02,17,24,-0.30
2017,02,02,17,25,-0.30
2017,02,02,17,26,-0.30
2017,02,02,17,27,-0.40
2017,02,02,17,28,-0.40
2017,02,02,17,29,-0.40
2017,02,02,17,30,-0.50
2017,02,02,17,31,-0.50
2017,02,02,17,32,-0.60
2017,02,02,17,33,-0.60
2017,02,02,17,34,-0.60
2017,02,02,17,35,-0.60
2017,02,02,17,36,-0.70
2017,02,02,17,37,-0.70
2017,02,02,17,38,-0.70
2017,02,02,17,39,-0.70
2017,02,02,17,40,-0.70
2017,02,02,17,41,-0.70
2017,02,02,17,42,-0.70
2017,02,02,17,43,-0.70
2017,02,02,17,44,-0.80
2017,02,02,17,45,-0.80
2017,02,02,17,46,-0.80